Benton Harbor, MI

4:57 PM EDT on September 23, 2017 (GMT -0400)
Southwest Michigan Regional

Weather History for KBEH - October, 2013

Change the Weather History Date:

Thursday, October 24, 2013

  Actual Average Record
Temperature  
Mean Temperature 37 °F -  
Max Temperature 42 °F 60 °F 80 °F (1963)
Min Temperature 33 °F 41 °F 22 °F (1982)
Degree Days  
Heating Degree Days 28    
Moisture  
Dew Point 32 °F    
Average Humidity 85    
Maximum Humidity 100    
Minimum Humidity 57    
Precipitation  
Precipitation 0.35 in - - ()
Sea Level Pressure  
Sea Level Pressure 30.11 in    
Wind  
Wind Speed 5 mph (NW)    
Max Wind Speed 13 mph    
Max Gust Speed 25 mph    
Visibility 7 miles    
Events Rain , Snow    
Averages and records for this station are not official NWS values.
T = Trace of Precipitation, MM = Missing Value Source: NWS Daily Summary

Daily Weather History Graph

Daily Weather History Graph

Search for Another Location

Airport or City:

Trip Planner

Search our weather history database for the weather conditions in past years. The results will help you decide how hot, cold, wet, or windy it might be!

Date:

Astronomy

Oct. 24, 2013 Rise Set
Actual Time 8:09 AM EDT 6:49 PM EDT
Civil Twilight 7:40 AM EDT 7:18 PM EDT
Nautical Twilight 7:07 AM EDT 7:51 PM EDT
Astronomical Twilight 6:35 AM EDT 8:23 PM EDT
Moon 11:11 PM EDT (10/24) 1:12 PM EDT (10/24)
Length of Visible Light 11h 37m
Length of Day
10h 40m
Waning Gibbous, 71% of the Moon is Illuminated
Oct 24
Waning Gibbous
Oct 26
Last Quarter
Nov 3
New
Nov 10
First Quarter
Nov 17
Full

Hourly Weather History & Observations

Time (EDT) Temp. Windchill Dew Point Humidity Pressure Visibility Wind Dir Wind Speed Gust Speed Precip Events Conditions
12:53 AM 36.0 °F - 33.1 °F 89% 29.97 in 10.0 mi Calm Calm - 0.02 in   Overcast
1:53 AM 36.0 °F 29.6 °F 33.1 °F 89% 29.98 in 10.0 mi East 8.1 mph - N/A   Overcast
2:08 AM 35.6 °F 29.2 °F 33.8 °F 93% 29.96 in 10.0 mi SE 8.1 mph - N/A   Overcast
2:53 AM 34.0 °F 29.8 °F 34.0 °F 100% 29.98 in 10.0 mi ENE 4.6 mph - N/A   Overcast
3:53 AM 41.0 °F 37.1 °F 30.0 °F 65% 29.97 in 10.0 mi NW 5.8 mph 17.3 mph N/A   Overcast
4:53 AM 41.0 °F 35.2 °F 28.0 °F 60% 29.97 in 10.0 mi WNW 9.2 mph 20.7 mph N/A   Overcast
5:53 AM 41.0 °F 35.8 °F 27.0 °F 57% 29.99 in 10.0 mi WNW 8.1 mph 17.3 mph N/A   Overcast
6:53 AM 41.0 °F 39.0 °F 28.0 °F 60% 30.00 in 10.0 mi Variable 3.5 mph - N/A   Overcast
7:53 AM 35.1 °F 31.0 °F 32.0 °F 89% 30.02 in 4.0 mi East 4.6 mph - 0.03 in Snow Light Snow
8:53 AM 36.0 °F 31.1 °F 30.9 °F 82% 30.04 in 5.0 mi West 5.8 mph - 0.05 in Snow Light Snow
9:09 AM 35.6 °F 30.7 °F 32.0 °F 87% 30.03 in 9.0 mi ENE 5.8 mph - 0.00 in   Overcast
9:53 AM 34.0 °F 28.8 °F 33.1 °F 96% 30.07 in 10.0 mi East 5.8 mph - 0.00 in   Overcast
10:53 AM 34.0 °F 29.8 °F 34.0 °F 100% 30.09 in 3.0 mi ESE 4.6 mph - 0.02 in Snow Light Snow
11:29 AM 33.8 °F 29.6 °F 33.8 °F 100% 30.09 in 2.0 mi ESE 4.6 mph - 0.03 in Snow Light Snow
11:36 AM 33.8 °F 30.8 °F 33.8 °F 100% 30.09 in 1.8 mi Variable 3.5 mph - 0.05 in Snow Light Snow
11:43 AM 33.8 °F - 33.8 °F 100% 30.09 in 2.5 mi Calm Calm - 0.06 in Snow Light Snow
11:53 AM 34.0 °F 29.8 °F 33.1 °F 96% 30.11 in 3.0 mi East 4.6 mph - 0.06 in Snow Light Snow
12:04 PM 33.8 °F - 33.8 °F 100% 30.09 in 1.8 mi Calm Calm - 0.03 in Snow Light Snow
12:13 PM 33.8 °F - 33.8 °F 100% 30.09 in 1.2 mi Calm Calm - 0.07 in Snow Light Snow
12:18 PM 33.8 °F 30.8 °F 33.8 °F 100% 30.09 in 2.0 mi Variable 3.5 mph - 0.07 in Snow Light Snow
12:27 PM 35.6 °F 32.8 °F 32.0 °F 87% 30.09 in 7.0 mi Variable 3.5 mph - 0.07 in   Overcast
12:53 PM 39.0 °F 32.3 °F 35.1 °F 86% 30.12 in 10.0 mi WNW 10.4 mph 18.4 mph 0.07 in   Overcast
1:39 PM 33.8 °F 27.0 °F 33.8 °F 100% 30.11 in 5.0 mi ENE 8.1 mph - 0.00 in Snow Light Snow
1:53 PM 33.1 °F 27.7 °F 33.1 °F 100% 30.14 in 5.0 mi East 5.8 mph - 0.01 in Snow Light Snow
2:53 PM 39.9 °F 32.9 °F 33.1 °F 77% 30.14 in 10.0 mi WNW 11.5 mph 19.6 mph 0.00 in   Overcast
3:08 PM 39.2 °F 33.0 °F 33.8 °F 81% 30.12 in 10.0 mi WNW 9.2 mph 20.7 mph 0.00 in   Overcast
3:37 PM 39.2 °F 34.2 °F 33.8 °F 81% 30.12 in 10.0 mi Variable 6.9 mph - 0.00 in   Overcast
3:48 PM 39.2 °F 33.6 °F 33.8 °F 81% 30.13 in 9.0 mi NW 8.1 mph - 0.00 in Rain Light Rain
3:53 PM 39.0 °F 34.0 °F 33.1 °F 79% 30.15 in 10.0 mi Variable 6.9 mph - 0.00 in Rain Light Rain
4:53 PM 41.0 °F 33.9 °F 28.0 °F 60% 30.16 in 10.0 mi WNW 12.7 mph 19.6 mph 0.00 in   Overcast
5:53 PM 41.0 °F 34.3 °F 28.0 °F 60% 30.17 in 10.0 mi WNW 11.5 mph 21.9 mph N/A   Overcast
6:53 PM 41.0 °F 35.8 °F 28.9 °F 62% 30.19 in 10.0 mi WNW 8.1 mph 18.4 mph N/A   Overcast
7:53 PM 41.0 °F 35.2 °F 28.0 °F 60% 30.20 in 10.0 mi WNW 9.2 mph - N/A   Overcast
8:53 PM 37.0 °F 33.3 °F 33.1 °F 86% 30.23 in 10.0 mi East 4.6 mph - N/A   Overcast
9:41 PM 37.4 °F 30.3 °F 32.0 °F 81% 30.21 in 10.0 mi SW 10.4 mph - N/A   Overcast
9:53 PM 39.0 °F 36.8 °F 30.9 °F 73% 30.23 in 10.0 mi West 3.5 mph - N/A   Overcast
10:43 PM 37.4 °F 31.4 °F 35.6 °F 93% 30.24 in 6.0 mi WNW 8.1 mph - 0.02 in Rain Light Rain
10:53 PM 36.0 °F 31.1 °F 34.0 °F 93% 30.27 in 3.0 mi WNW 5.8 mph - 0.04 in Rain Rain
11:01 PM 35.6 °F 29.2 °F 33.8 °F 93% 30.25 in 2.5 mi WNW 8.1 mph 17.3 mph 0.03 in Rain Rain
11:10 PM 35.6 °F 32.8 °F 35.6 °F 100% 30.24 in 5.0 mi Variable 3.5 mph - 0.04 in Rain Light Rain
11:25 PM 37.4 °F 33.8 °F 33.8 °F 87% 30.23 in 10.0 mi NW 4.6 mph - 0.04 in   Overcast
11:53 PM 37.9 °F 30.0 °F 34.0 °F 86% 30.26 in 9.0 mi West 12.7 mph 25.3 mph 0.05 in Rain Light Rain